Date,TemperatureHighF,TemperatureAvgF,TemperatureLowF,DewpointHighF,DewpointAvgF,DewpointLowF,HumidityHigh,HumidityAvg,HumidityLow,PressureMaxIn,PressureMinIn,WindSpeedMaxMPH,WindSpeedAvgMPH,GustSpeedMaxMPH,PrecipitationSumIn
2013-1-1,35.8,28.1,18.3,28.9,19.5,11.4,82,70,56,29.86,29.71,4,1,8,0.04
2013-1-2,29.3,19.0,10.4,13.5,10.0,4.7,86,68,50,30.03,29.85,4,1,8,0.00
2013-1-3,29.5,17.1,5.9,11.1,2.8,-3.5,81,54,32,30.09,29.96,3,1,9,0.00
2013-1-4,43.5,31.3,14.9,25.2,20.6,11.1,88,66,42,29.96,29.77,5,1,14,0.08
2013-1-5,48.0,33.1,20.3,25.5,21.3,18.0,92,65,37,30.21,29.83,5,1,11,0.04
2013-1-6,45.5,31.8,21.0,35.4,27.8,18.6,98,86,62,30.18,29.89,4,0,14,0.01
2013-1-7,46.0,31.4,21.6,33.4,26.1,20.1,99,82,55,30.36,29.91,6,1,17,0.00
2013-1-8,50.7,38.0,21.4,36.1,31.6,20.2,98,80,51,30.33,30.24,11,2,23,0.01
2013-1-9,49.6,37.1,26.6,43.5,33.0,25.9,98,86,68,30.33,29.99,4,1,14,0.00
2013-1-10,57.4,40.1,25.7,36.6,24.6,20.2,85,56,35,30.47,30.01,6,2,16,0.00
2013-1-11,44.4,34.3,22.5,37.9,29.1,20.2,97,82,60,30.46,30.16,3,0,9,0.09
2013-1-12,46.4,42.0,38.7,43.7,41.0,37.9,99,96,90,30.19,30.07,2,0,6,0.04
2013-1-13,50.0,45.7,41.9,49.3,45.4,41.6,99,99,96,30.12,29.98,3,1,8,0.01
2013-1-14,58.8,49.1,40.5,58.6,47.0,31.6,99,93,58,30.20,29.88,4,1,12,0.04
2013-1-15,43.0,38.2,34.0,39.2,35.4,31.8,99,90,75,30.24,30.14,4,0,11,0.14
2013-1-16,40.8,36.9,32.9,40.6,36.5,32.7,99,98,93,30.18,29.69,2,0,10,0.47
2013-1-17,46.8,37.5,32.2,38.5,31.2,22.5,99,80,54,30.02,29.80,4,1,12,0.00
2013-1-18,32.2,23.3,14.0,23.0,6.7,-5.1,94,53,23,30.43,29.97,8,2,21,0.00
2013-1-19,48.6,37.7,14.5,40.2,30.1,9.2,91,74,62,30.38,29.87,11,3,21,0.00
2013-1-20,54.1,44.6,28.9,45.2,33.8,9.4,99,68,35,29.86,29.51,8,4,22,0.00
2013-1-21,34.2,27.4,20.8,25.4,12.9,4.9,95,57,29,30.03,29.69,6,1,9,0.00
2013-1-22,30.4,22.0,10.0,25.7,9.4,-2.8,96,62,29,30.00,29.65,8,2,13,0.00
2013-1-23,20.7,12.0,6.8,1.4,-5.2,-9.2,69,46,31,30.07,29.98,7,3,14,0.00
2013-1-24,21.7,12.4,2.5,-3.5,-7.9,-10.7,57,40,26,30.13,29.96,7,3,14,0.00
2013-1-25,29.5,17.4,6.3,11.0,-4.7,-10.4,72,38,21,30.22,29.97,4,1,10,0.00
2013-1-26,30.6,19.6,11.5,14.3,6.4,-6.7,88,59,34,30.14,29.90,5,2,11,0.00
2013-1-27,35.2,20.1,11.8,5.8,1.6,-2.1,63,46,24,30.39,30.14,5,2,13,0.00
2013-1-28,33.6,23.1,8.2,30.1,13.2,-4.2,96,69,20,30.37,29.91,3,0,8,0.00
2013-1-29,37.0,34.1,32.0,36.1,29.9,18.7,99,85,57,30.13,29.91,2,0,5,0.21
2013-1-30,63.5,51.5,36.5,58.3,49.8,36.1,99,94,83,30.09,29.47,10,4,24,0.07
2013-1-31,70.9,49.9,32.2,58.7,38.1,11.6,98,67,10,29.54,29.00,99,5,99,0.35
2013-2-1,32.2,28.8,23.0,15.5,11.3,4.6,57,47,43,30.02,29.54,4,2,17,0.00
2013-2-2,34.5,26.2,15.3,22.6,11.2,2.8,84,54,27,30.19,29.90,5,2,13,0.00
2013-2-3,39.7,27.8,22.1,27.4,22.1,17.6,90,79,57,29.95,29.56,5,2,12,0.01
2013-2-4,25.0,22.3,20.7,11.6,9.7,7.6,62,58,47,30.17,30.09,3,1,6,0.01
2013-2-5,30.2,25.3,22.3,27.9,17.6,10.1,93,73,54,30.21,29.92,3,1,9,0.00
2013-2-6,45.7,32.8,26.2,29.6,21.2,6.8,93,64,42,30.28,29.91,6,1,11,0.02
2013-2-7,34.2,24.6,15.3,22.2,9.0,0.7,77,53,24,30.53,30.28,6,1,90,0.00
2013-2-8,34.2,32.0,28.8,30.7,24.5,10.9,90,74,41,30.48,29.50,8,3,24,0.02
2013-2-11,42.1,41.3,40.3,39.4,38.4,36.4,92,89,84,29.73,29.61,2,1,5,0.40
2013-2-12,53.2,39.2,27.1,39.0,30.3,22.0,94,72,44,29.89,29.61,8,2,19,0.00
2013-2-13,51.1,34.2,25.0,28.9,24.6,20.6,90,71,34,29.88,29.66,4,1,10,0.00
2013-2-14,31.8,28.2,24.8,29.5,24.9,22.1,91,87,75,30.03,29.69,2,0,4,0.25
2013-2-15,52.0,36.8,23.5,44.1,31.6,21.2,94,82,60,30.05,29.95,8,1,14,0.00
2013-2-16,42.8,33.1,26.1,37.7,30.5,24.8,95,90,71,29.96,29.64,10,2,20,0.05
2013-2-17,39.6,23.9,18.3,36.3,16.1,2.1,94,74,39,29.66,29.32,12,6,27,0.00
2013-2-18,36.1,23.7,14.9,9.2,2.2,-2.9,54,40,22,30.18,29.66,10,4,17,0.01
2013-2-19,52.5,36.9,16.9,42.4,27.6,2.9,94,70,45,30.18,29.59,5,1,13,0.52
2013-2-20,43.2,34.1,25.3,39.4,21.7,9.1,97,63,36,29.80,29.56,9,3,17,0.01
2013-2-21,42.3,29.3,24.6,22.5,14.9,12.7,68,55,38,30.13,29.78,8,3,17,0.00
2013-2-22,37.8,32.9,28.2,27.7,24.1,18.2,82,70,62,30.37,30.12,8,2,17,0.00
2013-2-23,41.7,35.5,30.6,34.4,30.1,26.4,95,81,65,30.34,29.85,4,1,12,0.22
2013-2-24,42.4,37.4,32.4,37.4,33.9,30.3,94,87,76,29.86,29.60,8,3,17,0.73
2013-2-25,46.8,34.2,27.3,37.7,28.8,24.5,95,82,55,30.25,29.85,8,1,15,0.14
2013-2-26,49.3,35.6,22.8,40.2,27.9,20.9,94,76,42,30.34,30.14,6,1,12,0.00
2013-2-27,45.0,42.0,38.1,44.1,40.5,34.5,98,94,85,30.14,29.55,11,3,27,0.61
2013-2-28,39.9,37.2,33.4,38.6,35.6,31.9,95,94,92,29.59,29.51,2,0,7,0.00
2013-3-1,44.1,37.2,34.0,36.3,33.8,31.5,96,88,67,29.92,29.51,5,1,16,0.00
2013-3-2,49.5,37.7,33.4,31.6,29.7,27.3,91,73,48,29.93,29.87,4,1,10,0.00
2013-3-3,47.8,36.7,32.5,33.4,28.8,26.4,92,73,50,29.89,29.81,4,1,8,0.00
2013-3-4,45.5,36.3,29.5,30.9,25.5,21.8,94,66,44,29.95,29.81,8,3,14,0.00
2013-3-5,43.0,35.9,27.5,36.1,28.7,23.3,96,76,59,30.31,29.95,9,2,17,0.00
2013-3-6,46.4,39.8,30.7,40.9,36.2,29.5,95,89,77,30.32,30.19,19,5,32,0.06
2013-3-7,38.3,35.1,31.5,37.0,33.8,30.7,97,95,89,30.20,30.12,24,17,41,1.24
2013-3-8,42.1,35.3,32.4,38.9,33.3,30.4,99,93,69,30.32,30.10,21,12,31,0.35
2013-3-9,42.1,37.0,33.8,34.1,30.9,29.2,91,78,69,30.45,29.92,20,10,26,0.00
2013-3-10,41.4,35.8,28.2,32.8,30.6,25.4,93,82,69,30.12,30.03,14,5,14,0.00
2013-3-11,51.8,41.2,30.6,42.4,37.2,28.8,95,86,67,30.06,29.90,8,4,13,0.00
2013-3-12,55.9,50.6,43.7,54.3,48.4,42.0,99,92,81,29.91,29.48,10,6,18,0.80
2013-3-13,57.7,50.7,28.6,53.6,40.1,22.1,99,69,35,29.51,29.40,7,3,11,0.17
2013-3-14,28.6,26.4,24.1,23.0,14.4,4.9,87,63,42,29.55,29.48,11,4,14,0.00
2013-3-15,44.6,32.7,22.8,27.1,14.7,3.6,75,49,19,29.59,29.38,10,6,16,0.00
2013-3-16,43.3,33.7,24.1,27.3,20.6,7.1,89,61,22,29.59,29.41,6,2,11,0.00
2013-3-17,45.1,32.3,20.5,25.3,15.0,2.4,93,54,21,30.02,29.58,7,3,12,0.00
2013-3-18,40.3,30.4,19.6,28.0,14.6,3.0,88,52,37,30.17,29.96,6,3,11,0.00
2013-3-19,42.8,35.9,30.0,41.2,34.8,28.0,98,96,89,29.96,29.21,10,5,20,0.43
2013-3-20,45.9,34.1,25.2,30.8,21.7,16.9,94,64,35,29.55,29.38,10,3,16,0.01
2013-3-21,30.6,28.1,24.4,29.9,26.6,21.7,98,94,88,29.55,29.31,5,1,8,0.00
2013-3-22,46.8,34.9,26.4,35.5,24.6,16.7,98,70,32,29.47,29.31,7,2,11,0.00
2013-3-23,46.8,36.5,26.6,26.1,20.1,16.1,79,53,31,29.50,29.36,11,6,17,0.00
2013-3-24,50.5,37.7,26.8,29.1,23.8,19.2,88,59,33,29.55,29.46,10,3,15,0.00
2013-3-25,50.4,37.2,27.0,37.3,30.3,24.3,95,77,47,29.49,29.18,15,6,23,0.00
2013-3-26,52.5,40.6,28.6,36.4,28.6,21.7,96,66,30,29.49,29.18,14,5,22,0.02
2013-3-27,57.9,41.4,22.8,35.4,25.5,18.9,90,59,23,29.57,29.45,7,3,14,0.00
2013-3-28,52.2,42.6,37.2,39.7,34.4,27.6,97,76,42,29.74,29.56,12,4,17,0.05
2013-3-29,62.2,43.8,27.1,40.0,34.0,25.7,97,71,35,29.77,29.70,6,2,10,0.00
2013-3-30,58.1,44.7,29.7,38.7,31.8,26.0,89,64,29,29.82,29.75,7,2,11,0.00
2013-3-31,48.9,39.1,26.1,44.3,35.2,24.8,97,70,28,29.85,29.48,9,3,15,0.05
2013-4-1,60.1,47.6,36.1,48.3,40.9,14.0,99,79,36,29.52,29.28,12,6,17,0.11
2013-4-2,46.2,36.7,26.4,18.5,12.9,4.0,62,39,19,29.69,29.52,10,5,18,0.00
2013-4-3,50.2,38.3,29.3,16.9,11.9,4.9,55,35,16,29.88,29.66,12,6,17,0.00
2013-4-4,52.2,39.2,24.8,31.8,20.4,10.6,71,49,21,30.02,29.86,11,6,14,0.00
2013-4-5,59.5,46.0,34.9,45.9,39.3,29.2,95,78,52,29.69,29.36,7,3,10,0.01
2013-4-6,50.7,41.6,28.2,29.0,15.1,-4.8,81,43,10,30.07,29.58,10,4,17,0.00
2013-4-7,55.2,42.6,25.0,44.5,31.1,11.7,95,68,18,30.06,29.77,11,6,17,0.00
2013-4-8,67.3,52.6,44.6,48.5,42.4,37.5,98,71,45,29.85,29.70,8,4,14,0.00
2013-4-9,72.1,52.3,43.3,54.1,46.1,37.9,99,80,50,29.83,29.58,9,4,13,0.09
2013-4-10,59.9,50.1,43.9,47.9,44.6,41.7,99,82,62,29.73,29.58,8,3,13,0.21
2013-4-11,53.6,46.8,44.1,46.0,41.8,33.9,99,84,55,29.85,29.53,11,4,19,0.04
2013-4-12,44.2,41.8,37.9,41.5,36.7,30.8,99,83,61,29.88,29.42,13,7,21,0.45
2013-4-13,52.2,42.2,37.4,41.1,38.7,35.5,99,88,65,29.67,29.42,14,6,24,0.05
2013-4-14,60.8,46.3,32.0,44.2,35.0,25.9,99,69,34,29.93,29.66,8,3,14,0.00
2013-4-15,58.8,43.5,28.8,40.5,33.9,25.7,92,71,46,30.14,29.93,6,2,11,0.00
2013-4-16,52.7,36.1,32.4,47.9,34.8,31.6,97,78,39,30.15,29.86,11,4,17,0.00
2013-4-17,66.7,55.5,37.6,55.9,44.6,30.9,99,71,28,30.06,29.82,9,4,14,0.01
2013-4-18,65.7,50.3,32.9,48.5,35.1,25.5,99,63,27,30.15,29.89,8,4,14,0.00
2013-4-19,69.8,62.2,52.5,64.6,59.7,48.5,98,92,74,29.89,29.46,16,8,24,0.00
2013-4-20,65.3,52.7,41.0,63.9,48.8,37.2,99,88,46,29.92,29.40,15,5,24,0.28
2013-4-21,52.2,42.8,30.2,36.0,26.7,22.5,86,55,35,30.40,29.92,10,4,18,0.00
2013-4-22,54.5,41.1,28.9,39.6,31.4,26.5,98,70,40,30.45,30.37,11,5,17,0.00
2013-4-24,49.6,48.5,48.0,49.4,48.0,47.2,99,98,95,29.68,29.65,9,7,14,0.18
2013-4-25,68.4,53.0,37.4,54.1,43.8,34.9,99,75,32,29.97,29.62,9,4,13,0.02
2013-4-26,61.3,48.0,32.9,45.7,39.0,32.1,99,74,45,30.14,29.97,8,3,13,0.00
2013-4-27,65.3,49.5,33.8,48.6,38.7,33.3,99,71,35,30.15,30.04,7,2,11,0.00
2013-4-28,69.6,52.3,34.0,52.5,41.1,33.0,99,70,34,30.08,29.99,8,2,14,0.00
2013-4-29,68.5,50.9,39.2,52.1,38.9,14.5,99,72,13,30.02,29.97,7,2,11,0.00
2013-4-30,69.3,52.2,33.4,53.2,31.3,9.9,97,56,10,30.09,29.98,8,2,14,0.00
2013-5-1,66.6,50.6,33.1,49.4,41.1,30.1,95,73,48,30.21,30.09,8,3,14,0.00
2013-5-2,73.0,46.9,36.3,58.3,40.1,35.4,99,83,26,30.19,30.14,4,0,6,0.00
2013-5-3,45.1,44.6,44.2,42.4,42.0,41.7,91,90,90,30.12,30.12,1,1,2,0.00
2013-5-4,57.4,50.5,41.5,44.1,41.0,38.8,90,70,55,30.08,30.03,13,7,22,0.00
2013-5-5,59.2,47.6,34.7,46.6,41.1,33.9,99,80,55,30.03,29.98,11,4,16,0.00
2013-5-6,70.9,54.7,43.5,53.1,47.5,42.5,99,80,51,30.01,29.89,5,2,9,0.00
2013-5-7,78.8,60.7,46.9,61.8,54.0,46.7,99,81,51,29.92,29.85,8,2,12,0.00
2013-5-8,77.5,64.2,52.0,67.4,59.4,51.2,99,86,62,29.93,29.77,11,4,15,0.12
2013-5-9,71.8,61.7,53.4,65.5,59.9,53.2,99,94,72,29.77,29.60,6,2,9,0.18
2013-5-10,79.0,63.7,54.1,63.6,57.5,53.9,99,82,46,29.69,29.61,7,3,13,0.00
2013-5-11,64.9,60.9,56.1,63.4,59.3,55.3,99,95,80,29.68,29.45,8,5,14,0.92
2013-5-12,66.9,59.4,44.6,64.1,54.9,38.2,99,86,54,29.54,29.32,8,4,13,0.12
2013-5-13,61.3,51.2,36.9,50.6,37.3,29.7,98,62,34,29.74,29.54,11,4,14,0.00
2013-5-14,60.1,51.0,41.4,41.1,35.7,30.5,82,58,34,29.77,29.69,9,3,15,0.00
2013-5-15,65.1,52.1,34.7,56.7,44.3,33.3,98,77,44,29.80,29.42,10,4,16,0.00
2013-5-16,80.6,63.1,51.6,58.3,52.6,47.7,99,72,33,29.51,29.39,8,3,10,0.00
2013-5-17,68.0,60.1,45.9,57.9,45.2,40.7,97,61,38,29.91,29.51,8,3,12,0.00
2013-5-18,58.1,55.9,54.5,54.1,53.3,52.0,95,91,81,30.03,30.02,4,3,7,0.00
2013-5-19,72.0,60.7,49.5,57.5,51.6,47.7,99,75,44,30.08,29.97,6,3,10,0.06
2013-5-20,75.6,62.7,56.1,65.5,60.2,55.7,99,92,69,29.97,29.65,5,3,8,0.08
2013-5-21,77.2,63.3,53.6,70.3,60.2,53.3,99,91,71,29.69,29.59,7,2,12,0.07
2013-5-22,70.3,59.1,51.8,63.2,57.1,51.5,99,93,75,29.71,29.62,10,3,14,0.01
2013-5-23,68.2,63.3,59.9,66.8,62.8,59.6,99,98,93,29.68,29.58,7,5,16,0.00
2013-5-24,66.7,62.6,53.6,66.5,62.4,53.3,99,99,99,29.58,29.40,10,4,14,0.00
2013-5-25,56.7,51.3,43.0,54.4,50.1,42.5,99,96,84,29.49,29.40,10,4,20,0.00
2013-5-26,62.4,50.0,41.2,45.2,41.3,37.8,98,74,47,29.82,29.44,5,2,11,0.00
2013-5-27,77.9,58.9,40.8,52.0,43.7,32.0,99,64,20,29.90,29.80,6,2,10,0.00
2013-5-28,77.2,61.3,43.7,62.4,50.3,43.2,99,72,37,29.96,29.90,6,2,9,0.00
2013-5-29,69.1,60.9,57.4,63.5,59.5,57.1,99,96,79,29.94,29.73,6,4,11,0.43
2013-5-30,83.5,69.2,59.0,70.1,63.9,58.7,99,85,62,29.82,29.74,6,3,9,0.15
2013-5-31,89.2,73.0,58.6,70.3,64.5,58.4,99,77,48,29.83,29.70,6,2,8,0.00
2013-6-1,80.2,68.4,60.8,67.5,63.4,60.1,99,85,63,29.73,29.65,7,4,11,0.00
2013-6-2,74.7,65.8,62.2,66.0,63.7,61.7,99,93,73,29.67,29.56,13,6,42,0.01
2013-6-3,67.3,63.7,61.7,67.0,63.5,61.4,99,99,99,29.59,29.52,7,4,11,0.93
2013-6-4,78.1,63.3,50.4,63.1,51.1,45.1,99,70,33,29.80,29.53,5,1,11,0.01
2013-6-5,75.4,61.7,44.4,63.1,49.2,44.1,99,68,33,29.91,29.80,6,2,11,0.00
2013-6-6,79.0,64.5,50.2,62.5,53.7,49.3,99,71,37,29.93,29.81,6,2,11,0.00
2013-6-7,62.2,58.6,56.5,61.4,57.6,53.3,99,96,83,29.84,29.48,7,3,11,2.27
2013-6-8,76.6,66.5,59.7,70.1,64.0,59.5,99,92,64,29.73,29.27,8,4,14,0.39
2013-6-9,82.8,68.5,55.0,67.7,60.1,54.8,99,78,40,29.90,29.73,8,2,11,0.00
2013-6-10,73.4,62.8,54.5,64.1,59.2,54.2,99,89,63,29.92,29.72,5,2,8,0.43
2013-6-11,73.2,64.3,58.5,68.5,63.2,58.2,99,97,85,29.72,29.26,6,3,10,0.91
2013-6-12,62.4,60.9,59.0,58.4,57.8,56.6,92,90,85,29.96,29.91,1,0,2,0.39
2013-6-13,75.6,59.4,49.5,65.2,55.9,49.2,99,89,55,29.99,29.77,10,2,15,0.18
2013-6-14,67.1,58.3,52.9,55.7,53.6,50.0,99,86,59,29.91,29.72,14,7,26,0.99
2013-6-15,82.8,67.7,52.9,60.9,53.7,42.1,99,68,26,30.12,29.91,6,2,11,0.00
2013-6-16,78.4,66.8,55.2,69.1,59.6,52.6,99,80,44,30.12,29.93,8,3,11,0.00
2013-6-17,84.4,70.1,58.6,68.7,64.3,58.4,99,83,55,30.09,29.95,8,2,11,0.00
2013-6-18,86.5,66.6,58.6,71.4,61.5,58.4,99,85,48,30.10,30.02,8,3,17,0.02
2013-6-19,75.2,67.2,57.6,59.3,54.1,47.9,99,73,44,30.32,30.02,9,4,17,0.05
2013-6-20,79.3,70.9,61.2,70.4,56.6,49.7,99,76,50,30.45,30.32,6,2,9,0.00
2013-6-21,77.4,68.0,61.2,63.8,59.3,55.8,89,74,58,30.45,30.38,7,4,12,0.00
2013-6-22,81.5,69.7,62.2,65.6,62.4,56.9,99,79,50,30.42,30.32,8,4,10,0.00
2013-6-23,79.3,71.2,64.9,69.0,67.3,64.7,99,88,67,30.35,30.22,8,5,14,0.00
2013-6-24,88.5,75.7,67.8,76.4,71.2,66.8,99,87,65,30.22,30.04,5,3,8,0.00
2013-6-25,91.0,75.4,66.7,74.4,69.7,66.3,99,84,54,30.08,29.92,6,2,9,0.00
2013-6-26,90.5,76.5,68.4,76.1,71.7,68.1,99,87,60,30.01,29.89,6,1,9,0.07
2013-6-27,78.4,68.6,65.3,71.9,67.2,65.0,99,96,77,30.02,29.91,6,2,10,0.02
2013-6-28,72.5,70.8,67.5,72.2,70.5,67.2,99,99,99,29.92,29.72,6,3,14,0.74
2013-6-29,79.2,71.7,68.7,73.9,70.7,68.5,99,97,80,29.93,29.71,6,3,13,0.54
2013-6-30,75.6,71.5,69.4,73.0,70.7,69.2,99,97,86,30.12,29.92,5,2,8,0.05
2013-7-1,71.6,70.3,69.8,71.3,70.1,69.5,99,99,97,30.25,30.20,5,2,7,0.11
2013-7-2,71.8,71.4,71.2,71.5,71.2,71.0,99,99,99,30.38,30.35,3,1,5,0.12
2013-7-3,83.7,75.3,70.5,76.2,72.9,70.3,99,93,76,30.39,30.34,6,3,8,0.00
2013-7-4,87.3,77.1,71.2,79.2,74.1,71.0,99,91,72,30.39,30.28,6,2,9,0.00
2013-7-5,91.0,78.9,71.2,79.6,74.3,71.0,99,87,65,30.34,30.23,6,2,9,0.00
2013-7-6,91.0,80.3,71.4,79.9,75.6,71.2,99,87,68,30.25,30.13,3,1,6,0.00
2013-7-7,95.5,79.5,70.3,82.3,75.1,70.1,99,88,57,30.19,30.08,4,0,6,0.08
2013-7-8,91.6,78.0,69.3,79.6,73.7,69.0,99,87,64,30.21,30.09,4,1,8,0.00
2013-7-9,75.6,70.8,68.0,72.1,69.3,67.7,99,95,84,30.26,30.19,4,1,8,0.00
2013-7-10,84.2,75.8,69.4,78.6,74.5,69.2,99,96,76,30.23,29.99,6,2,10,0.46
2013-7-11,77.4,74.0,70.2,76.2,73.7,69.9,99,99,95,30.07,29.96,4,1,6,0.38
2013-7-12,73.0,69.6,66.6,71.9,68.0,64.9,99,95,82,30.34,30.06,9,4,17,0.00
2013-7-13,84.0,71.5,66.2,75.9,70.1,65.9,99,96,74,30.47,30.34,6,2,10,0.28
2013-7-14,92.3,78.7,71.1,81.7,75.8,70.8,99,91,64,30.47,30.35,2,0,6,0.00
2013-7-15,96.3,81.9,70.5,88.1,74.2,68.1,99,80,49,30.37,30.26,6,1,11,0.00
2013-7-16,94.6,80.6,69.3,83.1,71.8,69.0,99,77,46,30.33,30.25,6,1,9,0.00
2013-7-17,95.7,80.6,68.4,81.6,72.2,68.1,99,79,46,30.35,30.20,4,1,7,0.00
2013-7-18,96.4,82.3,74.8,79.9,75.3,72.4,99,81,54,30.20,30.12,8,2,12,0.00
2013-7-19,90.7,81.2,75.2,82.2,78.1,75.0,99,91,73,30.12,29.93,7,3,13,0.00
2013-7-20,87.8,79.3,70.7,79.9,76.5,70.4,99,91,73,29.96,29.83,7,3,11,0.18
2013-7-21,87.6,74.4,68.4,75.1,70.8,66.2,99,90,58,30.16,29.96,4,1,8,0.02
2013-7-22,84.2,73.9,66.9,73.5,70.3,66.7,99,89,63,30.17,30.04,7,2,11,0.00
2013-7-23,87.1,77.1,69.8,80.6,75.3,69.5,99,94,77,30.04,29.71,6,2,11,0.05
2013-7-24,91.4,78.9,70.3,82.8,74.5,66.0,99,87,64,30.07,29.74,6,1,14,0.04
2013-7-25,70.7,65.0,60.1,65.8,61.8,59.0,99,89,77,30.22,30.07,13,7,21,0.04
2013-7-26,68.7,65.9,63.0,68.5,65.6,62.7,99,99,99,30.18,30.05,11,3,16,0.59
2013-7-27,84.0,71.9,63.0,76.0,68.3,62.7,99,90,64,30.23,30.17,4,1,8,0.01
2013-7-28,80.1,73.1,68.5,78.9,71.8,68.3,99,96,81,30.19,30.11,4,0,6,0.11
2013-7-29,86.5,75.3,65.8,78.4,72.0,65.6,99,90,68,30.20,30.15,3,1,7,0.00
2013-7-30,87.1,76.6,63.3,73.5,66.0,60.9,99,79,42,30.25,30.18,5,1,9,0.00
2013-7-31,86.0,77.8,64.0,74.0,65.4,60.8,99,78,48,30.29,30.22,5,1,8,0.00
2013-8-1,85.6,72.0,62.6,77.3,66.4,62.3,99,84,51,30.23,30.06,4,1,7,0.05
2013-8-2,88.0,72.7,64.4,76.4,68.3,64.1,99,88,48,30.06,29.96,3,0,5,0.11
2013-8-3,82.0,73.0,67.8,72.2,69.3,67.1,99,92,69,30.06,29.95,12,1,99,0.01
2013-8-4,84.6,69.4,56.3,72.7,62.1,56.0,99,81,45,30.03,29.92,5,1,10,0.08
2013-8-5,81.1,65.9,53.2,65.1,55.2,47.0,99,74,32,30.21,30.03,4,1,8,0.01
2013-8-6,84.7,66.2,48.6,68.5,55.1,48.3,99,72,38,30.33,30.19,6,1,9,0.00
2013-8-7,85.6,68.3,52.5,72.0,57.1,52.3,99,72,38,30.36,30.30,4,1,7,0.00
2013-8-8,82.9,71.6,60.3,73.9,67.6,56.9,98,87,68,30.31,30.20,7,2,11,0.00
2013-8-9,76.8,73.8,71.4,74.6,73.1,71.2,99,98,91,30.23,29.94,7,3,12,0.54
2013-8-10,89.6,79.8,69.3,73.9,68.2,62.3,99,74,42,30.17,29.96,4,0,8,0.01
2013-8-11,84.7,78.0,62.4,69.2,62.1,52.5,99,73,33,30.24,30.16,4,1,7,0.00
2013-8-12,83.7,71.5,60.1,72.8,67.1,59.8,99,89,67,30.21,30.09,4,1,7,0.00
2013-8-13,78.4,71.8,64.6,77.7,69.3,64.3,99,96,84,30.09,29.85,2,0,4,0.04
2013-8-14,80.8,69.2,57.7,65.6,59.1,53.8,99,74,42,30.11,29.82,4,1,7,0.00
2013-8-15,82.2,66.5,50.7,66.5,55.4,48.8,99,72,32,30.29,30.11,5,1,8,0.00
2013-8-16,84.7,69.4,54.1,71.3,60.2,53.9,99,76,39,30.37,30.27,5,1,8,0.00
2013-8-17,83.5,68.8,56.3,69.5,62.0,56.0,99,82,49,30.44,30.36,6,1,10,0.00
2013-8-18,82.8,68.2,58.1,71.9,63.1,57.8,99,86,57,30.44,30.25,3,0,6,0.01
2013-8-19,87.3,71.0,55.8,69.1,63.0,55.5,99,79,39,30.25,30.11,3,0,4,0.01
2013-8-20,70.0,67.7,63.0,68.1,66.9,62.7,99,78,45,30.26,30.14,5,1,6,0.00
2013-8-21,90.1,74.8,61.0,78.9,67.9,60.7,99,82,53,30.31,30.21,5,1,7,0.00
2013-8-22,84.4,73.7,68.4,76.4,71.5,68.1,99,93,75,30.22,30.01,4,2,7,0.00
2013-8-23,78.3,70.8,59.4,71.6,63.9,57.8,99,81,53,30.26,29.98,11,3,18,0.00
2013-8-24,75.0,64.6,50.0,63.1,55.0,45.2,99,74,39,30.50,30.26,10,4,17,0.00
2013-8-25,86.5,67.5,47.8,65.4,56.1,47.6,99,72,28,30.52,30.38,5,1,8,0.00
2013-8-26,80.2,71.4,63.5,70.0,66.5,58.6,94,85,67,30.38,30.05,7,2,10,0.00
2013-8-27,76.6,70.7,68.2,73.2,69.9,67.9,99,97,87,30.06,29.99,5,1,8,0.01
2013-8-28,79.9,69.3,65.1,71.6,67.5,64.9,99,94,72,30.11,30.01,6,2,10,0.00
2013-8-29,67.3,65.1,61.3,67.0,64.4,59.9,99,98,94,30.21,30.10,9,4,13,0.14
2013-8-30,78.4,67.7,59.4,70.5,65.5,59.1,99,93,74,30.17,30.02,4,1,7,0.00
2013-8-31,77.0,71.9,69.3,74.7,71.3,69.0,99,98,89,30.03,29.99,5,2,9,0.00
2013-9-1,75.0,72.5,70.7,74.8,72.3,70.4,99,99,99,30.06,29.99,4,1,6,0.25
2013-9-2,84.2,75.1,72.1,80.0,74.1,71.9,99,97,81,30.06,29.89,4,0,7,0.19
2013-9-3,84.0,74.7,68.4,79.7,73.0,68.1,99,95,79,29.95,29.86,4,1,8,0.22
2013-9-6,64.4,54.6,47.8,54.2,49.6,45.3,91,84,65,30.32,30.27,1,0,2,0.00
2013-9-7,78.1,63.4,47.7,61.1,54.5,45.3,97,75,41,30.28,30.04,7,2,10,0.00
2013-9-8,83.7,68.9,52.2,66.4,58.9,44.3,86,71,52,30.24,29.90,9,2,21,0.00
2013-9-9,74.1,58.9,43.3,58.3,48.4,40.5,93,71,36,30.40,30.24,4,1,7,0.00
2013-9-10,74.5,66.6,55.9,65.6,60.4,51.4,86,80,72,30.34,30.22,7,3,9,0.00
2013-9-11,85.5,74.0,69.1,75.1,68.8,64.4,95,84,69,30.26,30.15,5,3,8,0.00
2013-9-12,77.9,72.5,70.2,73.1,69.9,66.8,96,91,84,30.18,29.87,6,3,9,0.00
2013-9-13,78.3,70.7,61.3,72.5,68.2,59.3,99,92,77,29.89,29.73,5,1,9,0.13
2013-9-14,77.2,64.7,52.7,63.9,57.9,51.0,94,80,56,30.21,29.89,5,1,8,0.00
2013-9-15,75.2,65.1,45.3,64.0,55.8,45.1,99,80,48,30.33,30.21,4,1,6,0.00
2013-9-16,74.1,74.1,74.1,61.2,61.2,61.2,99,89,71,30.36,30.18,6,1,10,0.04
2013-9-17,74.1,70.1,41.2,61.2,58.6,39.5,94,70,52,30.56,30.36,11,5,21,0.00
2013-9-18,78.3,55.2,37.6,57.9,46.2,37.3,99,76,28,30.49,30.31,4,1,7,0.00
2013-9-19,80.6,62.2,49.3,62.5,54.5,49.0,99,79,42,30.32,30.20,4,1,5,0.00
2013-9-20,83.1,63.6,50.2,65.4,56.2,49.9,99,80,45,30.25,30.17,4,1,6,0.00
2013-9-21,79.2,69.0,54.0,67.8,62.3,53.4,99,82,59,30.21,29.92,6,2,14,0.01
2013-9-22,76.3,73.4,50.5,70.6,67.7,46.8,97,82,69,29.96,29.80,6,2,10,0.17
2013-9-23,69.3,54.4,42.8,49.6,45.4,41.1,95,74,44,30.15,29.96,5,1,9,0.00
2013-9-24,67.6,55.4,37.6,50.5,45.1,36.0,97,76,48,30.15,29.97,5,1,8,0.00
2013-9-25,69.6,61.4,51.8,55.1,49.9,47.1,99,78,52,30.13,30.04,7,2,11,0.00
2013-9-26,66.4,56.3,49.5,52.4,49.3,45.3,92,78,58,30.26,30.12,8,2,13,0.00
2013-9-27,64.8,57.1,45.9,55.5,51.5,44.0,93,82,68,30.41,30.26,10,3,115,0.00
2013-9-28,53.6,46.6,42.6,50.1,45.6,42.1,99,83,54,30.47,30.40,6,1,8,0.00
2013-9-29,68.7,55.4,39.9,56.3,50.1,39.1,99,84,59,30.42,30.25,7,2,11,0.00
2013-9-30,70.0,59.4,46.6,58.6,54.1,44.8,96,84,64,30.26,30.12,8,2,11,0.00
2013-10-1,78.8,58.1,44.2,60.7,50.2,44.0,99,79,42,30.12,30.00,5,1,11,0.00
2013-10-2,74.1,54.4,50.9,64.3,50.3,47.5,90,86,71,30.07,30.03,1,0,3,0.00
2013-10-20,53.4,43.4,37.6,37.6,35.9,34.7,90,75,53,30.18,30.08,0,0,0,0.00
2013-10-21,70.7,49.8,34.2,51.3,40.4,33.9,99,76,34,30.28,30.18,5,1,8,0.00
2013-10-22,51.4,49.6,46.2,51.2,48.9,45.1,99,98,96,29.94,29.92,0,0,2,0.00
2013-10-23,57.4,45.3,35.2,48.8,41.4,35.0,99,88,58,29.96,29.74,4,1,6,0.09
2013-10-24,54.3,42.7,34.5,32.0,30.4,29.0,86,64,39,30.06,29.94,4,1,7,0.00
2013-10-25,59.7,39.8,28.6,40.1,31.6,27.1,99,76,40,30.33,30.06,5,1,8,0.00
2013-10-26,61.0,44.9,27.5,45.0,36.2,26.3,99,75,48,30.33,30.04,10,4,15,0.00
2013-10-27,63.0,49.5,33.8,45.7,37.6,30.4,96,66,39,30.23,29.99,5,1,8,0.01
2013-10-28,64.9,45.6,28.9,42.8,34.2,28.2,99,69,35,30.48,30.23,6,2,11,0.00
2013-10-29,57.6,41.6,30.4,40.0,34.3,27.8,99,77,45,30.57,30.48,7,1,11,0.00
2013-10-30,52.2,42.5,30.0,50.0,41.7,29.8,99,97,88,30.53,30.35,1,0,4,0.04
2013-10-31,65.5,54.5,36.9,63.7,52.5,36.6,99,93,78,30.40,30.02,7,2,13,0.02
2013-11-1,71.2,63.8,58.3,68.5,62.9,57.7,99,97,88,30.02,29.70,12,6,21,0.02
2013-11-2,67.6,56.9,51.1,58.4,53.6,50.8,99,90,61,29.88,29.75,3,0,4,0.01
2013-11-3,51.1,43.7,35.6,50.8,41.2,25.7,99,91,67,30.52,29.86,11,4,16,0.05
2013-11-4,46.2,39.8,32.0,32.0,29.4,26.8,90,69,48,30.85,30.51,10,4,19,0.00
2013-11-5,56.3,42.3,32.7,37.8,33.4,31.5,98,78,45,30.86,30.68,4,1,6,0.00
2013-11-6,62.2,48.9,34.3,55.3,45.6,34.1,99,90,57,30.68,30.24,7,2,11,0.00
2013-11-7,62.4,56.1,42.3,62.2,55.7,39.5,99,99,90,30.24,29.83,7,3,10,0.66
2013-11-8,53.8,40.2,28.9,39.5,32.5,24.0,99,76,44,30.26,29.97,7,2,11,0.01
2013-11-9,50.5,36.3,25.9,35.1,27.7,24.0,99,74,39,30.37,30.22,6,1,8,0.00
2013-11-10,58.5,47.4,36.9,49.5,42.5,34.9,99,84,62,30.22,29.88,6,2,11,0.04
2013-11-11,56.7,46.8,36.0,45.0,34.4,27.6,81,63,35,30.26,30.02,6,4,11,0.00
2013-11-12,52.5,37.4,28.6,42.3,32.8,20.7,99,85,62,30.32,30.03,6,1,9,0.11
2013-11-13,42.8,29.6,23.4,21.9,18.1,15.3,81,63,36,30.42,30.32,6,2,11,0.01
2013-11-14,54.7,42.1,25.7,34.0,26.8,18.1,75,56,27,30.36,30.20,7,4,11,0.00
2013-11-15,60.3,47.9,36.7,49.9,40.8,28.3,99,78,44,30.38,30.30,7,3,10,0.00
2013-11-16,63.0,46.7,35.1,46.7,41.2,34.8,99,84,39,30.49,30.36,4,1,6,0.00
2013-11-17,64.4,50.4,34.3,59.1,48.3,34.1,99,94,57,30.48,30.03,7,2,11,0.07
2013-11-18,64.0,56.8,41.2,63.8,54.9,40.1,99,94,66,30.03,29.73,12,4,19,0.33
2013-11-19,48.9,40.3,30.9,40.5,27.2,20.5,94,61,37,30.42,29.83,8,4,12,0.00
2013-11-20,44.2,30.8,22.1,24.6,19.8,17.0,89,66,35,30.76,30.42,8,2,14,0.00
2013-11-21,56.3,35.0,20.3,36.4,28.4,18.8,98,80,44,30.78,30.56,5,1,8,0.00
2013-11-22,52.9,45.8,36.0,52.6,45.3,33.6,99,98,91,30.56,29.98,5,0,9,0.13
2013-11-23,53.4,45.6,30.7,47.9,32.7,19.7,99,64,31,30.03,29.93,8,4,13,0.01
2013-11-24,30.7,26.2,22.5,19.7,6.1,-6.0,63,43,24,30.33,29.94,13,8,18,0.00
2013-11-25,30.2,25.8,22.3,23.6,9.7,0.6,76,53,37,30.52,30.33,8,3,11,0.00
2013-11-26,47.7,39.9,30.2,47.4,32.3,23.6,99,76,49,30.49,30.20,5,2,11,0.06
2013-11-27,63.7,54.5,39.7,63.4,54.2,39.5,99,99,99,30.20,29.32,17,7,29,1.46
2013-11-28,40.5,32.4,20.7,39.1,21.2,11.0,99,65,37,30.60,29.62,9,4,18,0.00
2013-11-29,41.5,28.2,19.9,23.4,16.4,11.5,82,63,36,30.88,30.59,5,1,8,0.00
2013-11-30,41.2,27.8,16.3,29.2,19.6,11.4,91,73,42,30.92,30.61,5,1,10,0.00
2013-12-1,48.4,43.1,32.5,48.1,41.0,29.2,99,92,80,30.61,30.12,7,3,13,0.00
2013-12-2,46.2,40.7,38.7,45.8,40.3,38.4,99,99,94,30.14,30.05,3,1,5,0.00
2013-12-3,50.9,38.4,27.9,42.5,36.4,27.6,99,93,64,30.09,29.97,7,3,14,0.00
2013-12-4,50.2,33.7,24.8,39.8,29.5,24.6,99,87,51,30.36,30.09,4,1,8,0.00
2013-12-5,56.5,45.9,27.3,56.2,45.0,27.1,99,97,86,30.37,30.10,8,2,12,0.01
2013-12-6,55.8,48.9,38.1,55.5,48.6,37.9,99,99,99,30.28,30.04,7,2,11,0.15
2013-12-7,46.4,34.5,25.5,39.8,32.1,24.8,99,92,59,30.60,30.20,6,2,11,0.22
2013-12-8,34.2,28.0,18.5,25.9,22.1,18.3,99,80,58,30.74,30.60,4,1,7,0.00
2013-12-9,43.9,38.3,31.1,43.6,37.6,25.4,99,98,74,30.63,30.01,9,3,18,0.25
2013-12-10,35.4,31.5,24.3,35.2,31.2,23.3,99,99,95,30.17,29.94,0,0,2,0.00
2013-12-11,36.3,26.9,19.2,28.2,22.8,19.0,99,85,63,30.40,30.17,0,0,0,0.01
2013-12-12,33.3,20.2,9.3,21.6,11.4,4.3,96,72,34,30.42,30.25,0,0,0,0.00
2013-12-13,35.8,22.6,11.7,17.5,13.4,9.6,91,69,43,30.50,30.17,8,1,14,0.00
2013-12-14,31.1,22.2,15.3,30.9,18.1,6.0,99,84,66,30.73,30.27,8,4,14,0.00
2013-12-15,49.8,33.4,24.1,49.6,32.9,23.2,99,98,85,30.27,29.46,11,3,20,0.77
2013-12-16,36.0,24.5,10.4,25.8,15.5,8.0,99,71,39,30.38,29.92,8,2,12,0.00
2013-12-17,34.3,21.7,6.8,34.1,19.3,5.7,99,91,52,30.42,30.01,6,2,10,0.01
2013-12-18,39.2,29.3,20.3,32.1,24.7,20.1,99,84,56,30.26,29.93,10,4,17,0.00
2013-12-19,47.3,34.9,21.6,37.7,29.0,20.1,97,80,58,30.29,30.12,9,3,17,0.08
2013-12-20,57.2,41.2,29.8,48.5,38.8,29.6,99,92,71,30.30,30.11,8,3,13,0.00
2013-12-22,53.8,48.2,41.9,53.5,47.9,41.6,99,99,99,30.17,29.99,8,4,13,0.00
2013-12-23,43.9,40.8,35.8,43.6,40.5,35.5,99,99,99,30.22,30.09,6,2,11,0.34
2013-12-24,39.2,33.5,26.1,38.9,29.1,20.5,99,84,64,30.34,30.16,8,3,14,0.04
2013-12-25,27.1,21.5,15.1,21.9,11.6,5.6,87,66,48,30.70,30.34,10,3,17,0.00
2013-12-26,41.9,30.6,16.7,38.2,28.9,13.8,99,93,74,30.66,30.20,6,1,11,0.09
2013-12-27,41.4,28.3,21.6,27.9,23.5,20.5,99,84,51,30.44,30.35,6,1,8,0.00
2013-12-28,51.3,35.5,22.6,39.0,31.9,21.9,99,88,58,30.40,30.16,8,2,15,0.00
2013-12-29,50.7,41.0,33.1,50.5,40.7,32.5,99,99,96,30.21,29.46,9,2,17,0.64
2013-12-30,42.8,34.7,23.7,42.0,29.3,16.1,99,82,54,30.29,29.62,7,3,13,0.01
2013-12-31,32.5,22.0,15.8,17.7,11.8,4.7,90,66,38,30.34,30.19,6,2,10,0.00
2014-1-1,33.3,22.7,14.5,17.1,11.8,7.2,94,64,39,30.54,30.34,7,2,11,0.00
2014-1-2,33.4,27.9,22.5,33.2,27.1,16.7,99,97,77,30.51,29.83,17,8,28,0.00